When you browse on this site, cookies collect data to enhance your experience and personalize the content and advertising you see.
Visit our Privacy Policy to learn more. By continuing to use the site, you agree to this use of cookies and data.
  • In Switzerland
  • List of Countries
  • For 7 days
  • Water Temperature
  • Weather Map
  • Weather Widgets
  • user-avatar
    Login

    Hourly Weather Frendshin

    Today, 12 December, Thursday

    Time Temperature Precipitation Wind Pressure Humidity
    00:00 +25°C° 0.4 mm 5 mps 756 mmHg 94%
    01:00 +25°C° 0.4 mm 5 mps 756 mmHg 96%
    02:00 +23°C° 0 mm 4 mps 755 mmHg 98%
    03:00 +23°C° 0.5 mm 4 mps 755 mmHg 98%
    04:00 +23°C° 0.5 mm 4 mps 756 mmHg 98%
    05:00 +23°C° 0.5 mm 4 mps 756 mmHg 99%
    06:00 +25°C° 0.7 mm 4 mps 756 mmHg 92%
    07:00 +27°C° 0.7 mm 4 mps 757 mmHg 86%
    08:00 +28°C° 0 mm 4 mps 757 mmHg 80%
    09:00 +29°C° 0.7 mm 4 mps 757 mmHg 76%
    10:00 +30°C° 0.7 mm 4 mps 757 mmHg 73%
    11:00 +32°C° 0.7 mm 4 mps 757 mmHg 69%
    12:00 +30°C° 1.4 mm 4 mps 756 mmHg 76%
    13:00 +30°C° 1.4 mm 5 mps 755 mmHg 83%
    14:00 +29°C° 1.4 mm 6 mps 755 mmHg 90%
    15:00 +28°C° 1 mm 6 mps 755 mmHg 91%
    16:00 +28°C° 1 mm 6 mps 755 mmHg 91%
    17:00 +27°C° 1 mm 6 mps 755 mmHg 92%
    18:00 +27°C° 0.8 mm 6 mps 755 mmHg 93%
    19:00 +26°C° 0.8 mm 6 mps 756 mmHg 94%
    20:00 +26°C° 0.8 mm 6 mps 757 mmHg 95%
    21:00 +26°C° 1.2 mm 6 mps 757 mmHg 95%
    22:00 +26°C° 1.2 mm 5 mps 757 mmHg 96%
    23:00 +26°C° 1.2 mm 5 mps 757 mmHg 96%

    Tomorrow, 13 December, Friday

    Time Temperature Precipitation Wind Pressure Humidity
    00:00 +25°C° 1.5 mm 5 mps 757 mmHg 97%
    01:00 +25°C° 1.5 mm 5 mps 756 mmHg 97%
    02:00 +25°C° 1.5 mm 5 mps 756 mmHg 98%
    03:00 +25°C° 1.1 mm 5 mps 756 mmHg 98%
    04:00 +25°C° 1.1 mm 4 mps 756 mmHg 98%
    05:00 +23°C° 1.1 mm 4 mps 756 mmHg 99%
    06:00 +25°C° 1 mm 4 mps 756 mmHg 98%
    07:00 +25°C° 1 mm 4 mps 757 mmHg 98%
    08:00 +26°C° 1 mm 3 mps 757 mmHg 97%
    09:00 +26°C° 0.4 mm 3 mps 757 mmHg 97%
    10:00 +26°C° 0.4 mm 2 mps 757 mmHg 97%
    11:00 +26°C° 0.4 mm 2 mps 758 mmHg 97%
    12:00 +26°C° 0 mm 2 mps 757 mmHg 96%
    13:00 +26°C° 0 mm 2 mps 756 mmHg 96%
    14:00 +26°C° 0 mm 3 mps 755 mmHg 96%
    15:00 +26°C° 0 mm 3 mps 755 mmHg 95%
    16:00 +26°C° 0 mm 3 mps 755 mmHg 95%
    17:00 +26°C° 0 mm 4 mps 755 mmHg 94%
    18:00 +26°C° 0 mm 4 mps 755 mmHg 94%
    19:00 +26°C° 0 mm 5 mps 755 mmHg 94%
    20:00 +26°C° 0 mm 5 mps 756 mmHg 94%
    21:00 +26°C° 0 mm 5 mps 756 mmHg 94%
    22:00 +26°C° 0 mm 5 mps 756 mmHg 94%
    23:00 +26°C° 0 mm 5 mps 756 mmHg 94%

    Day after tomorrow, 14 December, Saturday

    Time Temperature Precipitation Wind Pressure Humidity
    00:00 +26°C° 0 mm 5 mps 756 mmHg 95%
    01:00 +26°C° 0 mm 5 mps 756 mmHg 95%
    02:00 +26°C° 0 mm 5 mps 755 mmHg 95%
    03:00 +25°C° 0.7 mm 5 mps 755 mmHg 96%
    04:00 +25°C° 0.7 mm 4 mps 756 mmHg 97%
    05:00 +25°C° 0.7 mm 4 mps 756 mmHg 98%
    06:00 +26°C° 1.1 mm 4 mps 757 mmHg 97%
    07:00 +26°C° 1.1 mm 4 mps 757 mmHg 96%
    08:00 +26°C° 1.1 mm 4 mps 758 mmHg 95%
    09:00 +28°C° 0.9 mm 4 mps 758 mmHg 92%
    10:00 +29°C° 0.9 mm 4 mps 758 mmHg 89%
    11:00 +30°C° 0.9 mm 5 mps 758 mmHg 85%
    12:00 +30°C° 0.5 mm 5 mps 757 mmHg 85%
    13:00 +30°C° 0.5 mm 5 mps 756 mmHg 84%
    14:00 +30°C° 0.5 mm 5 mps 755 mmHg 84%
    15:00 +29°C° 0.3 mm 5 mps 755 mmHg 84%
    16:00 +29°C° 0.3 mm 5 mps 755 mmHg 85%
    17:00 +28°C° 0.3 mm 5 mps 755 mmHg 86%
    18:00 +28°C° 0.4 mm 5 mps 756 mmHg 88%
    19:00 +27°C° 0.4 mm 5 mps 756 mmHg 89%
    20:00 +27°C° 0.4 mm 5 mps 756 mmHg 91%
    21:00 +27°C° 0.8 mm 5 mps 757 mmHg 93%
    22:00 +26°C° 0.8 mm 5 mps 757 mmHg 94%
    23:00 +26°C° 0.8 mm 5 mps 757 mmHg 96%

    15 December, Sunday

    Time Temperature Precipitation Wind Pressure Humidity
    00:00 +26°C° 0.1 mm 4 mps 757 mmHg 96%
    01:00 +26°C° 0.1 mm 4 mps 756 mmHg 97%
    02:00 +26°C° 0.1 mm 4 mps 756 mmHg 97%
    03:00 +25°C° 0.5 mm 4 mps 756 mmHg 97%
    04:00 +25°C° 0.5 mm 3 mps 756 mmHg 98%
    05:00 +25°C° 0.5 mm 3 mps 756 mmHg 98%
    06:00 +26°C° 0.6 mm 3 mps 757 mmHg 94%
    07:00 +27°C° 0.6 mm 3 mps 757 mmHg 90%
    08:00 +28°C° 0.6 mm 3 mps 758 mmHg 86%
    09:00 +29°C° 0.6 mm 4 mps 758 mmHg 83%
    10:00 +30°C° 0.6 mm 4 mps 758 mmHg 81%
    11:00 +32°C° 0.6 mm 4 mps 758 mmHg 79%
    12:00 +30°C° 0.4 mm 4 mps 757 mmHg 81%
    13:00 +29°C° 0.4 mm 4 mps 756 mmHg 82%
    14:00 +28°C° 0.4 mm 3 mps 756 mmHg 84%
    15:00 +28°C° 0.1 mm 4 mps 756 mmHg 84%
    16:00 +28°C° 0.1 mm 4 mps 756 mmHg 84%
    17:00 +28°C° 0.1 mm 5 mps 756 mmHg 83%
    18:00 +28°C° 0.2 mm 5 mps 756 mmHg 84%
    19:00 +28°C° 0.2 mm 5 mps 757 mmHg 85%
    20:00 +27°C° 0.2 mm 5 mps 757 mmHg 86%
    21:00 +27°C° 1.3 mm 5 mps 757 mmHg 89%
    22:00 +26°C° 1.3 mm 5 mps 757 mmHg 91%
    23:00 +26°C° 1.3 mm 5 mps 757 mmHg 93%

    16 December, Monday

    Time Temperature Precipitation Wind Pressure Humidity
    00:00 +26°C° 2.4 mm 5 mps 757 mmHg 95%
    01:00 +26°C° 2.4 mm 5 mps 756 mmHg 96%
    02:00 +25°C° 2.4 mm 5 mps 756 mmHg 97%
    03:00 +25°C° 2.1 mm 5 mps 756 mmHg 97%
    04:00 +25°C° 2.1 mm 5 mps 756 mmHg 97%
    05:00 +25°C° 2.1 mm 5 mps 756 mmHg 97%
    06:00 +26°C° 1.9 mm 6 mps 756 mmHg 96%
    07:00 +26°C° 1.9 mm 6 mps 757 mmHg 95%
    08:00 +27°C° 1.9 mm 6 mps 758 mmHg 95%
    09:00 +27°C° 1.4 mm 6 mps 758 mmHg 95%
    10:00 +27°C° 1.4 mm 6 mps 758 mmHg 95%
    11:00 +27°C° 1.4 mm 6 mps 758 mmHg 95%
    12:00 +27°C° 0.7 mm 6 mps 757 mmHg 94%
    13:00 +27°C° 0.7 mm 6 mps 757 mmHg 94%
    14:00 +27°C° 0.7 mm 6 mps 756 mmHg 94%
    15:00 +27°C° 0 mm 6 mps 756 mmHg 93%
    16:00 +26°C° 0 mm 6 mps 756 mmHg 92%
    17:00 +26°C° 0 mm 6 mps 756 mmHg 91%
    18:00 +26°C° 0 mm 6 mps 756 mmHg 90%
    19:00 +26°C° 0 mm 6 mps 757 mmHg 89%
    20:00 +26°C° 0 mm 6 mps 757 mmHg 89%
    21:00 +26°C° 0 mm 6 mps 757 mmHg 88%
    22:00 +26°C° 0 mm 6 mps 757 mmHg 88%
    23:00 +26°C° 0 mm 6 mps 758 mmHg 87%

    17 December, Tuesday

    Time Temperature Precipitation Wind Pressure Humidity
    00:00 +26°C° 0 mm 5 mps 757 mmHg 87%
    01:00 +26°C° 0 mm 5 mps 757 mmHg 88%
    02:00 +25°C° 0 mm 5 mps 757 mmHg 88%
    03:00 +25°C° 0 mm 5 mps 757 mmHg 90%
    04:00 +25°C° 0 mm 5 mps 757 mmHg 92%
    05:00 +23°C° 0 mm 5 mps 757 mmHg 94%
    06:00 +26°C° 0.1 mm 5 mps 757 mmHg 88%
    07:00 +27°C° 0.1 mm 5 mps 758 mmHg 83%
    08:00 +28°C° 0.1 mm 5 mps 758 mmHg 77%
    09:00 +29°C° 0.1 mm 5 mps 758 mmHg 72%
    10:00 +30°C° 0.1 mm 5 mps 758 mmHg 68%
    11:00 +32°C° 0.1 mm 5 mps 758 mmHg 63%
    12:00 +32°C° 0 mm 6 mps 757 mmHg 61%
    13:00 +32°C° 0 mm 6 mps 756 mmHg 58%
    14:00 +33°C° 0 mm 6 mps 755 mmHg 56%
    15:00 +32°C° 0 mm 6 mps 755 mmHg 62%
    16:00 +29°C° 0 mm 5 mps 755 mmHg 68%
    17:00 +28°C° 0 mm 5 mps 755 mmHg 74%
    18:00 +27°C° 0.1 mm 5 mps 755 mmHg 79%
    19:00 +26°C° 0.1 mm 5 mps 756 mmHg 84%
    20:00 +26°C° 0.1 mm 5 mps 757 mmHg 89%
    21:00 +25°C° 0.1 mm 5 mps 757 mmHg 91%
    22:00 +25°C° 0.1 mm 5 mps 757 mmHg 93%
    23:00 +25°C° 0.1 mm 5 mps 757 mmHg 95%
    Show more